STARLINK-5744, 55601

Orbit data source: Space-Track

STARLINK-5744, 55601 is a payload satellite owned by SpaceX/Seattle (US) in LEO that was launched on Sun, 12 Feb 2023 UTC via an FALCON 9 launch vehicle from the Air Force Eastern Test Range (AFETR). Payload-class satellites include a variety of spacecraft equipped with specific instruments for various scientific and technological missions. These include communications satellites like Starlink; space stations such as the ISS; scientific satellites like the Hubble; Earth observation satellites from companies like Planet Labs, Umbra, and HawkEye 360; GPS; miniature CubeSats for education and research; and military/defense satellites.

Loading next visibility...
Identifier
55601, 2023-020AJ
Orbit
LEO
Country
Flag of USUS
Related business
Manufacturer
SpaceX/Seattle
Mission
Operational Commercial Communications
Bus & Motor
STARLINK, Unknown motor
Mass
305 kg wet, ~290 kg dry
Launch date (UTC)
2023-02-12 (3 years ago)
Launch vehicle
FALCON 9
Launch site
Air Force Eastern Test Range (AFETR)
Object type
Payload
Rocket body
Debris
Shape & HBR
Box + 1 Pan, 10.1 m
Radar Cross Section
13.562 m², Large (>1 m²)

Expand to show TLE details & history
Last TLE update: 21 hours ago

TLE from 21 hours ago
0 STARLINK-5744
1 55601U 23020AJ  25344.73607875  .00000481  00000-0  50707-4 0  9991
2 55601  43.0033 127.5358 0001345 271.3172  88.7516 15.02532629155549
Epoch: 2025-12-10T17:39Z
TLE epoch observation values (Epoch: 2025-12-10T17:39:57.204Z)
Latitude
-0.00006°
Longitude
142.84526°
Altitude
558.848 km
Speed
7.584 km/s
True Right ascension
08h 30m 08s
True Declination
0° 00' 00"
Sunlit
Object was in full shadow at epoch
Visualization orbit readout
Latitude
Unknown
Longitude
Unknown
Altitude
Unknown
Speed
Unknown
Apparent Right ascension
Unknown
Apparent Declination
Unknown
Sunlit
N/A
Visualization observer readout
Local Sidereal Time
12:41:56
Azimuth
Unknown
Elevation
Unknown
Doppler factor
Unknown
Orbital elements
Apogee altitude
561.947 km
Perigee altitude
560.08 km
Semi-major axis
6,939.15 km
Eccentricity
0.00013
Inclination
43.0033°
RAAN
127.5358°
Arg. of periapsis
271.3172°
True anomaly
88.76701°
Mean anomaly
88.7516°
Eccentric anomaly
88.7593°
Mean motion
3.75477 °/min
Orbital period
95.88 mins
BSTAR
0.000050707
Loading maneuver chart data...
Computing Atmospheric mass density...
Loading historical data...
Loading historical data...
Loading historical data...
Loading historical data...
Loading historical data...
Loading historical data...
Loading historical data...

Documentation

Showing up to 5 results
|